Regional Weather Roundup
Issued by NWS

Home | Current Version | Previous Version | Text Only | Print | Product List | Glossary Off
Versions: 1 2 3 4 5 6 7 8 9 10 11 12 13 14 15 16 17 18 19 20 21 22 23 24 25 26 27 28 29 30 31 32 33 34 35 36 37 38 39 40 41 42 43 44 45 46 47 48 49 50

000
ASUS43 KLSX 142259
RWRMO

WEATHER SUMMARY FOR MISSOURI
NATIONAL WEATHER SERVICE SPRINGFIELD MO
600 PM CDT SUN SEP 14 2014

NOTE: "FAIR" INDICATES FEW OR NO CLOUDS BELOW 12,000 FEET WITH NO
       SIGNIFICANT WEATHER AND/OR OBSTRUCTIONS TO VISIBILITY.
       CURRENT SKY AND/OR WEATHER CONDITIONS ARE NOT AVAILABLE FOR
       CHILLICOTHE AND FARMINGTON.

MOZ001>031-035>038-043-044-053-054-150000-
...NORTHERN AND WESTERN MISSOURI...

CITY           SKY/WX    TMP DP  RH WIND       PRES   REMARKS
KANSAS CTY INT PTSUNNY   69  56  62 SE9       30.11F
KANSAS C DTWN  MOSUNNY   72  56  57 S10       30.11F
LEE`S SUMMIT   SUNNY     71  55  56 S10G16    30.13F
ST JOSEPH      MOSUNNY   70  55  59 S7        30.11R
KIRKSVILLE     SUNNY     68  50  52 S7        30.15F

$$
MOZ066>068-077>081-088>096-101>105-150000-
...SOUTHWEST MISSOURI...

CITY           SKY/WX    TMP DP  RH WIND       PRES   REMARKS
SPRINGFIELD    SUNNY     75  51  43 S8        30.15S
JOPLIN         SUNNY     76  57  51 S8        30.13F

$$
MOZ032>034-039>042-045>050-055>058-069>072-150000-
...CENTRAL MISSOURI...

CITY           SKY/WX    TMP DP  RH WIND       PRES   REMARKS
COLUMBIA       CLOUDY    68  52  56 S7        30.17S
JEFFERSON CITY CLOUDY    70  49  47 SE7       30.16F
ROLLA          PTSUNNY   66  50  56 E5        30.16F
SEDALIA        CLOUDY    70  55  59 SE7       30.15F
OSAGE BEACH    PTSUNNY   70  52  52 SE5       30.16F

$$
MOZ051-052-059>065-150000-
...EAST CENTRAL MISSOURI...

CITY           SKY/WX    TMP DP  RH WIND       PRES   REMARKS
ST LOUIS INTL  MOSUNNY   71  46  40 S7        30.18F
SPIRIT OF STL  MOSUNNY   70  48  45 CALM      30.17F
ST CHARLES     SUNNY     68  49  50 NE6       30.18F

$$
MOZ072>076-082>087-097>100-106>115-150000-
...SOUTH CENTRAL AND SOUTHEAST MISSOURI...

CITY           SKY/WX    TMP DP  RH WIND       PRES   REMARKS
CAPE GIRARDEAU SUNNY     72  49  44 CALM      30.19S
FARMINGTON     PTSUNNY   70  48  46 E3        30.21S
POPLAR BLUFF   SUNNY     72  45  37 E3        30.17F
WEST PLAINS    SUNNY     71  49  45 VRB5      30.20S

$$


USA.gov is the U.S. government's official web portal to all federal, state and local government web resources and services.